Live-Position
3D-Globus wird geladen...
Über Starlink 1394
Group: 3 satellites
Beschreibung wird geladen...
Nächste Überflüge
Passes for default location (London). Set your location on the main map for personalized predictions.
Höhenverlauf
Loading altitude history...
No altitude history available
Zweizeiliger Elementsatz
1 45679U 20035Y 26106.57776655 .00051293 00000-0 70267-3 0 9999
2 45679 53.0450 213.8319 0006707 321.6576 38.3957 15.56878680325040
Epoch: 16. Apr. 2026 •
Age: 26 hours
Aktueller Status
Höhe 410.9 km
Geschwindigkeit 7.66 km/s
Subsatellitenpunkt -44.57°S,
2.87°W
Startdatum 4. Juni 2020
Alter 5.8 years
Typ internet
Startgruppe
Falcon 9 •
Launch 7 •
27 satellites
Starlink 1443
45660
Starlink 1446 45663
Starlink 1448 45665
Starlink 1451 45668
Starlink 1452 45669
Starlink 1453 45670
Starlink 1454 45671
Starlink 1456 45673
Starlink 1457 45674
Starlink 1458 45675
Starlink 1460 45676
Starlink 1392 45677
Starlink 1402 45685
Starlink 1404 45686
Starlink 1413 45689
Starlink 1417 45693
Starlink 1420 45695
Starlink 1422 45696
Starlink 1351 45697
Starlink 1400 45700
...and 6 more
Technische Details
Klassifizierung Payload
Masse 260.00 kg
Trockenmasse 248.00 kg
Gesamtmasse 260.00 kg
Länge 0.20 m
Durchmesser 2.80 m
Spannweite 9.00 m
Form Box + pan
Hersteller SPXS
Bus-Typ Starlink
Phasenstatus In Orbit
Besitzer/Staat SPXS/US
Most Searched
Loading...